Flag for Turkey Weather past 2 weeks in Bursa, Turkey

Now
64 °F

Clear.


Feels Like: 64 °F
Forecast: 49 / 67 °F
Wind: 9 mph from West

Location: Bursa

Current Time: Apr 18, 2015 at 6:50:31 AM

Latest Report: Apr 18, 2015 at 5:00 AM


Visibility: 7 mi

Pressure: 29.99 "Hg

Humidity: 45%

Dew point: 43 °F

Location of BursaLocation

Historic Weather in Bursa — Graph

°F

Bursa temperature yesterday

Maximum temperature yesterday: 76 °F (at 3:00 PM)
Minimum temperature yesterday: 46 °F (at 6:00 AM)
Average temperature yesterday: 64 °F

Past Weeks' High & Low Weather Summary

 TemperatureHumidityPressure
High76 °F (Apr 17, 3:00 PM)99% (Apr 7, 1:00 AM)30.35 "Hg (Apr 7, 1:00 AM)
Low31 °F (Apr 11, 7:00 AM)32% (Apr 17, 2:00 PM)29.66 "Hg (Apr 6, 10:00 PM)
Average51 °F69%30.10 "Hg
* Reported Apr 3 6:00 AM — Apr 18 5:00 AM, Bursa, Weather by CustomWeather, © 2015

Note: Actual official high and low records may vary slightly from our data, if they occured in-between our weather recording intervals... More about our weather records

Advertising

Bursa weather history for previous 24 hours

 ConditionsComfort  
Time TempWeatherWind HumidityBarometerVisibility
5:00 AM
Sat, Apr 18
64 °FClear.9 mph45%29.99 "Hg7 mi
4:00 AM64 °FClear.8 mph47%30.01 "Hg7 mi
3:00 AM66 °FClear.13 mph45%30.01 "Hg9 mi
2:00 AM65 °FClear.14 mph53%30.02 "Hg9 mi
1:00 AM66 °FClear.8 mph51%30.03 "Hg9 mi
12:00 AM67 °FClear.9 mph51%30.03 "Hg9 mi
11:00 PM
Fri, Apr 17
68 °FClear.14 mph52%30.03 "Hg9 mi
10:00 PM67 °FClear.7 mph54%30.04 "Hg9 mi
9:00 PM70 °FClear.8 mph45%30.03 "Hg9 mi
8:00 PM71 °FClear.10 mph46%30.03 "Hg9 mi
7:00 PM74 °FSunny.10 mph41%30.01 "Hg9 mi
6:00 PM76 °FSunny.14 mph37%30.02 "Hg9 mi
5:00 PM76 °FSunny.17 mph35%30.03 "Hg9 mi
4:00 PM76 °FSunny.14 mph37%30.04 "Hg9 mi
3:00 PM76 °FSunny.13 mph37%30.07 "Hg9 mi
2:00 PM75 °FSunny.10 mph32%30.09 "Hg9 mi
1:00 PM74 °FSunny.9 mph41%30.11 "Hg9 mi
12:00 PM71 °FSunny.9 mph45%30.13 "Hg9 mi
11:00 AM69 °FSunny.3 mph50%30.15 "Hg7 mi
10:00 AM62 °FSunny.2 mph64%30.16 "Hg7 mi
9:00 AM58 °FSunny.2 mph70%30.17 "Hg7 mi
8:00 AM53 °FSunny.1 mph80%30.16 "Hg7 mi
6:00 AM46 °FClear.1 mph90%30.14 "Hg9 mi
Weather by CustomWeather, © 2015

See weather overviewHow to use our weather pages